Flight Track Log - Related Links

Times and Time Zones

All times are in EDT time to prevent confusion due to time zone crossing. See the RPA3496 flight status page for this flight to view local times or setup timezone preferences in your user account.

Time Position Orientation Groundspeed Altitude Reporting Facility
EDT Latitude Longitude Course Direction KTS MPH feet Rate Location/Type
Wed 04:01:31 PM 40.7833 -73.7667 72° East 240 276 4,700  Level New York TRACON
Wed 04:02:31 PM 40.8500 -73.7667 360° North 287 330 7,800 2,150 Climbing New York TRACON
Wed 04:03:00 PM 40.7690 -74.3044 269° West  Level Estimated
Wed 04:03:31 PM 40.8667 -73.8667 282° West 274 315 9,000  Level New York TRACON
Wed 04:04:00 PM 40.7666 -74.4123 268° West  Level Estimated
Wed 04:04:31 PM 40.8833 -73.9667 282° West 282 325 10,400  Level New York TRACON
Wed 04:05:00 PM 40.7748 -74.5198 276° West  Level FlightAware Approximate
Wed 04:05:31 PM 40.8833 -74.0667 270° West 304 350 13,200  Level New York TRACON
Wed 04:06:31 PM 40.8667 -74.2000 261° West 341 392 14,700 1,194 Climbing New York TRACON
Wed 04:08:42 PM 40.8514 -74.4772 266° West 364 419 17,000 715 Climbing New York Center
Wed 04:09:44 PM 40.8411 -74.6056 264° West 364 419 17,000  Level New York Center
Wed 04:10:42 PM 40.8325 -74.7394 265° West 364 419 17,000 900 Level New York Center
Wed 04:11:44 PM 40.8236 -74.8733 265° West 370 426 18,800 1,815 Climbing New York Center
Wed 04:12:41 PM 40.8111 -74.9933 262° West 370 426 20,600 2,017 Climbing New York Center
Wed 04:13:43 PM 40.8019 -75.1297 265° West 370 426 22,800 1,659 Climbing New York Center
Wed 04:14:44 PM 40.7772 -75.2925 259° West 396 456 24,000 605 Climbing New York Center
Wed 04:15:42 PM 40.7447 -75.4303 253° West 401 461 24,000  Level New York Center
Wed 04:16:43 PM 40.6997 -75.5611 246° West 395 455 24,000  Level New York Center
Wed 04:17:42 PM 40.6531 -75.6867 244° Southwest 395 455 24,000  Level New York Center
Wed 04:18:42 PM 40.6058 -75.8144 244° Southwest 395 455 24,000  Level New York Center
Wed 04:19:43 PM 40.5572 -75.9311 241° Southwest 395 455 24,000  Level New York Center
Wed 04:20:44 PM 40.5100 -76.0558 244° Southwest 395 455 24,000  Level New York Center
Wed 04:21:44 PM 40.4625 -76.1858 244° Southwest 395 455 24,000  Level New York Center
Wed 04:22:42 PM 40.4128 -76.3100 242° Southwest 395 455 24,000  Level New York Center
Wed 04:23:43 PM 40.3650 -76.4372 244° Southwest 395 455 24,000  Level New York Center
Wed 04:24:44 PM 40.3153 -76.5608 242° Southwest 395 455 24,000  Level New York Center
Wed 04:25:43 PM 40.2675 -76.6850 243° Southwest 395 455 24,000  Level New York Center
Wed 04:26:44 PM 40.2175 -76.8083 242° Southwest 395 455 24,000  Level New York Center
Wed 04:27:42 PM 40.1697 -76.9264 242° Southwest 388 447 24,000  Level New York Center
Wed 04:28:42 PM 40.1208 -77.0633 245° Southwest 383 441 24,000  Level New York Center
Wed 04:29:44 PM 40.0967 -77.2022 257° West 383 441 24,000 -347 Level New York Center
Wed 04:30:43 PM 40.0767 -77.3389 259° West 383 441 23,300 -700 Descending New York Center
Wed 04:31:44 PM 40.0522 -77.4778 257° West 393 452 22,600 -634 Descending New York Center
Wed 04:32:46 PM 40.0328 -77.6014 258° West 381 438 22,000 -290 Descending Cleveland Center
Wed 04:33:48 PM 40.0103 -77.7350 258° West 380 437 22,000  Level Cleveland Center
Wed 04:34:50 PM 39.9822 -77.8931 257° West 377 434 22,000  Level Cleveland Center
Wed 04:35:52 PM 39.9736 -78.0294 265° West 379 436 22,000  Level Cleveland Center
Wed 04:36:54 PM 39.9767 -78.1592 272° West 364 419 22,000 -339 Level Cleveland Center
Wed 04:37:56 PM 39.9794 -78.2811 272° West 358 412 21,300 -1,306 Descending Cleveland Center
Wed 04:38:58 PM 39.9836 -78.4342 272° West 356 410 19,300 -1,355 Descending Cleveland Center
Wed 04:40:00 PM 39.9869 -78.5581 272° West 348 400 18,500 -720 Descending Cleveland Center
Wed 04:41:03 PM 40.0036 -78.6786 280° West 343 395 17,800 -768 Descending Cleveland Center
Wed 04:42:05 PM 40.0264 -78.7931 285° West 330 380 16,900 -823 Descending Cleveland Center
Wed 04:43:07 PM 40.0478 -78.9086 284° West 331 381 16,100 -919 Descending Cleveland Center
Wed 04:44:09 PM 40.0742 -79.0511 284° West 343 395 15,000 -968 Descending Cleveland Center
Wed 04:45:11 PM 40.0978 -79.1733 284° West 347 399 14,100 -968 Descending Cleveland Center
Wed 04:46:13 PM 40.1192 -79.2925 283° West 342 394 13,000 -1,161 Descending Cleveland Center
Wed 04:47:15 PM 40.1389 -79.3956 284° West 322 371 11,700 -1,104 Descending Cleveland Center
Wed 04:48:18 PM 40.1617 -79.5275 283° West 312 359 10,700 -816 Descending Cleveland Center
Wed 04:49:20 PM 40.1819 -79.6358 284° West 311 358 10,000 -339 Descending Cleveland Center
Wed 04:50:22 PM 40.2192 -79.7367 296° West 313 360 10,000  Level Cleveland Center
Wed 04:51:24 PM 40.2700 -79.8331 305° West 320 368 10,000  Level Cleveland Center
Wed 04:52:26 PM 40.3233 -79.9375 304° West 340 391 10,000  Level Cleveland Center
Wed 04:53:28 PM 40.3792 -80.0450 304° West 340 391 10,000 -677 Level Cleveland Center
Wed 04:54:30 PM 40.4017 -80.1417 287° West 286 329 8,600 -1,728 Descending Cleveland Center
Wed 04:55:33 PM 40.4083 -80.2594 274° West 274 315 6,400 -1,920 Descending Cleveland Center
Wed 04:56:35 PM 40.4136 -80.3628 274° West 272 313 4,600 -1,452 Descending Cleveland Center
Wed 04:57:37 PM 40.4394 -80.4411 293° West 274 315 3,400 -768 Descending Cleveland Center
Wed 04:58:40 PM 40.4964 -80.4211 15° North 221 254 3,000 -435 Descending Cleveland Center
Wed 04:59:41 PM 40.5050 -80.3617 79° East 179 206 2,500 -537 Descending Cleveland Center
Wed 05:00:43 PM 40.5028 -80.3144 94° East 151 174 1,900 -581 Descending Cleveland Center

Login

Don't have an account? Register now (free) for customized features, flight alerts, and more!